START_TIME,STEP,MOV.,AL01,t_acc.,AL02,t_acc.,E37,t_acc.,H21,t_acc.
1979-07-17 03:00:34.330 ,1,0,0.,24.0,0.,24.0,0.,24.0,0.,24.0
1979-07-17 03:00:58.330 ,2,1,0.,24.0,0.,24.0,0.,24.0,0.,24.0
1979-07-17 03:01:22.330 ,2,0,1.,24.0,0.,24.0,0.,24.0,0.,24.0
1979-07-17 03:01:46.330 ,3,1,0.,24.0,0.,24.0,0.,24.0,0.,24.0
1979-07-17 03:02:10.330 ,3,0,0.,24.0,0.,24.0,0.,24.0,0.,24.0
1979-07-17 03:02:34.320 ,4,1,0.,24.0,1.,24.0,0.,24.0,0.,24.0
1979-07-17 03:02:58.320 ,4,0,0.,24.0,1.,24.0,0.,24.0,0.,24.0
1979-07-17 03:03:22.320 ,5,1,0.,24.0,0.,24.0,0.,24.0,0.,24.0
1979-07-17 03:03:46.320 ,5,0,0.,24.0,0.,24.0,0.,24.0,0.,24.0
1979-07-17 03:04:10.320 ,6,1,0.,24.0,0.,24.0,0.,24.0,0.,24.0
1979-07-17 03:04:34.320 ,6,0,0.,24.0,0.,24.0,0.,24.0,0.,24.0
1979-07-17 03:04:58.320 ,7,1,9.,24.0,0.,24.0,0.,24.0,0.,24.0
1979-07-17 03:05:22.320 ,7,0,33.,24.0,0.,24.0,1.,24.0,0.,24.0
1979-07-17 03:05:46.320 ,7,1,26.,24.0,0.,24.0,1.,24.0,0.,24.0
1979-07-17 03:06:10.320 ,7,0,45.,24.0,0.,24.0,0.,24.0,0.,24.0
1979-07-17 03:06:34.320 ,6,1,25.,24.0,0.,24.0,2.,24.0,0.,24.0
1979-07-17 03:06:58.320 ,6,0,0.,24.0,1.,24.0,2.,24.0,0.,24.0
1979-07-17 03:07:22.320 ,5,1,1.,24.0,0.,24.0,0.,24.0,0.,24.0
1979-07-17 03:07:46.320 ,5,0,0.,24.0,0.,24.0,2.,24.0,0.,24.0
1979-07-17 03:08:10.320 ,4,1,0.,24.0,0.,24.0,1.,24.0,0.,24.0
1979-07-17 03:08:34.320 ,4,0,0.,24.0,0.,24.0,0.,24.0,0.,24.0
1979-07-17 03:08:58.320 ,3,1,0.,24.0,0.,24.0,0.,24.0,0.,24.0
1979-07-17 03:09:22.320 ,3,0,0.,24.0,0.,24.0,1.,24.0,0.,24.0
1979-07-17 03:09:46.320 ,2,1,0.,24.0,0.,24.0,0.,24.0,0.,24.0
1979-07-17 03:10:10.320 ,2,0,1.,24.0,0.,24.0,0.,24.0,0.,24.0
1979-07-17 03:10:34.320 ,1,1,0.,24.0,0.,24.0,0.,24.0,0.,24.0
1979-07-17 03:10:58.320 ,1,0,0.,24.0,0.,24.0,0.,24.0,0.,24.0
1979-07-17 03:11:22.320 ,0,1,0.,24.0,0.,24.0,0.,24.0,0.,24.0
1979-07-17 03:11:46.320 ,0,0,1.,24.0,0.,24.0,0.,24.0,0.,24.0
1979-07-17 03:12:10.320 ,0,1,0.,24.0,0.,24.0,0.,24.0,0.,24.0
1979-07-17 03:12:34.320 ,0,0,0.,24.0,1.,24.0,0.,24.0,0.,24.0
1979-07-17 03:12:58.320 ,1,1,0.,24.0,1.,24.0,0.,24.0,0.,24.0
1979-07-17 03:13:22.320 ,1,0,1.,24.0,0.,24.0,1.,24.0,0.,24.0
1979-07-17 03:13:46.320 ,2,1,0.,24.0,1.,24.0,0.,24.0,0.,24.0
1979-07-17 03:14:10.320 ,2,0,0.,24.0,0.,24.0,0.,24.0,0.,24.0
1979-07-17 03:14:34.320 ,3,1,0.,24.0,0.,24.0,0.,24.0,0.,24.0
1979-07-17 03:14:58.320 ,3,0,0.,24.0,0.,24.0,0.,24.0,0.,24.0
1979-07-17 03:15:22.320 ,4,1,0.,24.0,0.,24.0,0.,24.0,0.,24.0
1979-07-17 03:15:46.320 ,4,0,0.,24.0,1.,24.0,0.,24.0,0.,24.0
1979-07-17 03:16:10.320 ,5,1,1.,24.0,0.,24.0,0.,24.0,0.,24.0
1979-07-17 03:16:34.320 ,5,0,1.,24.0,0.,24.0,0.,24.0,0.,24.0
1979-07-17 03:16:58.320 ,6,1,1.,24.0,0.,24.0,0.,24.0,0.,24.0
1979-07-17 03:17:22.320 ,6,0,0.,24.0,0.,24.0,0.,24.0,0.,24.0
1979-07-17 03:17:46.320 ,7,1,8.,24.0,0.,24.0,0.,24.0,0.,24.0
1979-07-17 03:18:10.320 ,7,0,31.,24.0,0.,24.0,0.,24.0,0.,24.0
1979-07-17 03:18:34.320 ,7,1,35.,24.0,0.,24.0,0.,24.0,0.,24.0
1979-07-17 03:18:58.320 ,7,0,30.,24.0,0.,24.0,0.,24.0,0.,24.0
1979-07-17 03:19:22.320 ,6,1,24.,24.0,0.,24.0,0.,24.0,0.,24.0
1979-07-17 03:19:46.320 ,6,0,0.,24.0,0.,24.0,0.,24.0,0.,24.0
1979-07-17 03:20:10.320 ,5,1,0.,24.0,1.,24.0,0.,24.0,0.,24.0
1979-07-17 03:20:34.320 ,5,0,1.,24.0,0.,24.0,0.,24.0,0.,24.0
1979-07-17 03:20:58.320 ,4,1,0.,24.0,0.,24.0,0.,24.0,0.,24.0
1979-07-17 03:21:22.320 ,0,0,0.,24.0,0.,24.0,0.,24.0,0.,24.0
1979-07-17 03:21:54.720 ,0,0,0.,24.0,1.,24.0,0.,24.0,0.,24.0
1979-07-17 03:22:10.320 ,0,0,0.,24.0,0.,24.0,0.,24.0,0.,24.0
1979-07-17 03:22:34.320 ,2,1,0.,24.0,0.,24.0,0.,24.0,0.,24.0
1979-07-17 03:22:58.320 ,2,0,0.,24.0,1.,24.0,0.,24.0,0.,24.0
1979-07-17 03:23:22.320 ,1,1,0.,24.0,0.,24.0,0.,24.0,0.,24.0
1979-07-17 03:23:46.320 ,1,0,0.,24.0,0.,24.0,0.,24.0,0.,24.0
1979-07-17 03:24:10.320 ,0,1,0.,24.0,0.,24.0,0.,24.0,0.,24.0
1979-07-17 03:24:34.320 ,0,0,0.,24.0,0.,24.0,0.,24.0,0.,24.0
1979-07-17 03:24:58.320 ,0,1,0.,24.0,0.,24.0,0.,24.0,0.,24.0
1979-07-17 03:25:22.320 ,0,0,0.,24.0,1.,24.0,0.,24.0,0.,24.0
1979-07-17 03:25:46.320 ,1,1,0.,24.0,0.,24.0,0.,24.0,0.,24.0
1979-07-17 03:26:10.320 ,1,0,1.,24.0,0.,24.0,1.,24.0,0.,24.0
1979-07-17 03:26:34.320 ,2,1,1.,24.0,0.,24.0,0.,24.0,0.,24.0
1979-07-17 03:26:58.320 ,2,0,1.,24.0,0.,24.0,0.,24.0,0.,24.0
1979-07-17 03:27:22.320 ,3,1,0.,24.0,0.,24.0,0.,24.0,0.,24.0
1979-07-17 03:27:46.320 ,3,0,1.,24.0,0.,24.0,2.,24.0,0.,24.0
1979-07-17 03:28:10.320 ,4,1,0.,24.0,1.,24.0,1.,24.0,0.,24.0
1979-07-17 03:28:34.320 ,4,0,0.,24.0,0.,24.0,1.,24.0,0.,24.0
1979-07-17 03:28:58.320 ,5,1,1.,24.0,0.,24.0,0.,24.0,0.,24.0
1979-07-17 03:29:22.320 ,5,0,0.,24.0,0.,24.0,0.,24.0,0.,24.0
1979-07-17 03:29:46.320 ,6,1,0.,24.0,0.,24.0,1.,24.0,0.,24.0
1979-07-17 03:30:10.320 ,6,0,1.,24.0,0.,24.0,1.,24.0,0.,24.0
1979-07-17 03:30:34.320 ,7,0,8.,24.0,0.,24.0,0.,24.0,0.,24.0
1979-07-17 03:30:58.320 ,7,0,29.,24.0,0.,24.0,0.,24.0,0.,24.0
1979-07-17 03:31:22.320 ,5,1,14.,24.0,0.,24.0,0.,24.0,0.,24.0
1979-07-17 03:31:46.320 ,1,1,0.,24.0,0.,24.0,0.,24.0,0.,24.0
1979-07-17 03:32:10.320 ,2,1,0.,24.0,1.,24.0,0.,24.0,0.,24.0
1979-07-17 03:32:34.320 ,6,1,0.,24.0,0.,24.0,0.,24.0,0.,24.0
1979-07-17 03:32:58.320 ,5,1,18.,24.0,0.,24.0,1.,24.0,0.,24.0
1979-07-17 03:33:22.320 ,1,1,0.,24.0,0.,24.0,0.,24.0,0.,24.0
1979-07-17 03:33:46.320 ,2,1,0.,24.0,0.,24.0,0.,24.0,0.,24.0
1979-07-17 03:34:10.320 ,6,1,0.,24.0,0.,24.0,0.,24.0,0.,24.0
1979-07-17 03:34:34.320 ,5,1,18.,24.0,1.,24.0,0.,24.0,0.,24.0
1979-07-17 03:34:58.320 ,1,1,0.,24.0,0.,24.0,0.,24.0,0.,24.0
1979-07-17 03:35:22.320 ,2,1,0.,24.0,0.,24.0,1.,24.0,0.,24.0
1979-07-17 03:35:46.320 ,6,1,0.,24.0,0.,24.0,0.,24.0,0.,24.0
1979-07-17 03:36:10.320 ,5,1,12.,24.0,0.,24.0,1.,24.0,0.,24.0
1979-07-17 03:36:34.320 ,1,1,0.,24.0,0.,24.0,0.,24.0,0.,24.0
1979-07-17 03:36:58.320 ,2,1,0.,24.0,0.,24.0,0.,24.0,0.,24.0
1979-07-17 03:37:22.320 ,6,1,0.,24.0,0.,24.0,1.,24.0,0.,24.0
1979-07-17 03:37:46.320 ,5,1,9.,24.0,0.,24.0,0.,24.0,0.,24.0
1979-07-17 03:38:10.320 ,1,1,0.,24.0,0.,24.0,0.,24.0,0.,24.0
1979-07-17 03:38:34.320 ,2,1,0.,24.0,0.,24.0,0.,24.0,0.,24.0
1979-07-17 03:38:58.320 ,6,1,1.,24.0,0.,24.0,2.,24.0,0.,24.0
1979-07-17 03:39:22.320 ,5,1,15.,24.0,0.,24.0,0.,24.0,0.,24.0
1979-07-17 03:39:46.320 ,1,1,1.,24.0,0.,24.0,0.,24.0,0.,24.0
1979-07-17 03:40:10.320 ,2,1,0.,24.0,0.,24.0,0.,24.0,0.,24.0
1979-07-17 03:40:34.320 ,6,1,0.,24.0,1.,24.0,0.,24.0,0.,24.0
1979-07-17 03:40:58.320 ,5,1,14.,24.0,0.,24.0,0.,24.0,0.,24.0
1979-07-17 03:41:22.320 ,1,1,0.,24.0,0.,24.0,0.,24.0,0.,24.0
1979-07-17 03:41:46.320 ,0,0,0.,24.0,0.,24.0,0.,24.0,0.,24.0
1979-07-17 03:42:10.320 ,0,0,0.,24.0,0.,24.0,0.,24.0,0.,24.0
1979-07-17 03:42:34.320 ,5,1,17.,24.0,0.,24.0,2.,24.0,0.,24.0
1979-07-17 03:42:58.320 ,5,0,0.,24.0,0.,24.0,0.,24.0,0.,24.0
1979-07-17 03:43:22.320 ,4,1,0.,24.0,0.,24.0,0.,24.0,0.,24.0
1979-07-17 03:43:46.320 ,4,0,0.,24.0,0.,24.0,0.,24.0,0.,24.0
1979-07-17 03:44:10.320 ,3,1,1.,24.0,0.,24.0,0.,24.0,0.,24.0
1979-07-17 03:44:34.320 ,3,0,0.,24.0,0.,24.0,2.,24.0,0.,24.0
1979-07-17 03:44:58.320 ,2,1,0.,24.0,0.,24.0,0.,24.0,0.,24.0
1979-07-17 03:45:22.320 ,2,0,0.,24.0,0.,24.0,0.,24.0,0.,24.0
1979-07-17 03:45:46.320 ,1,1,0.,24.0,0.,24.0,0.,24.0,0.,24.0
1979-07-17 03:46:10.320 ,1,0,1.,24.0,0.,24.0,0.,24.0,0.,24.0
1979-07-17 03:46:34.320 ,0,1,1.,24.0,1.,24.0,0.,24.0,0.,24.0
1979-07-17 03:46:58.320 ,0,0,0.,24.0,0.,24.0,0.,24.0,0.,24.0
1979-07-17 03:47:22.320 ,0,1,0.,24.0,0.,24.0,0.,24.0,0.,24.0
1979-07-17 03:47:46.320 ,0,0,0.,24.0,0.,24.0,0.,24.0,0.,24.0
1979-07-17 03:48:10.320 ,1,1,0.,24.0,0.,24.0,1.,24.0,0.,24.0
1979-07-17 03:48:34.320 ,1,0,0.,24.0,0.,24.0,1.,24.0,0.,24.0
1979-07-17 03:48:58.320 ,2,1,0.,24.0,0.,24.0,0.,24.0,0.,24.0
1979-07-17 03:49:22.320 ,2,0,0.,24.0,0.,24.0,0.,24.0,0.,24.0
1979-07-17 03:49:46.320 ,3,1,1.,24.0,0.,24.0,1.,24.0,0.,24.0
1979-07-17 03:50:10.320 ,3,0,0.,24.0,0.,24.0,1.,24.0,0.,24.0
1979-07-17 03:50:34.320 ,4,1,0.,24.0,0.,24.0,0.,24.0,0.,24.0
1979-07-17 03:50:58.320 ,4,0,0.,24.0,0.,24.0,0.,24.0,0.,24.0
1979-07-17 03:51:22.320 ,5,1,1.,24.0,0.,24.0,0.,24.0,0.,24.0
1979-07-17 03:51:46.320 ,5,0,0.,24.0,0.,24.0,0.,24.0,0.,24.0
1979-07-17 03:52:10.320 ,6,1,0.,24.0,0.,24.0,0.,24.0,0.,24.0
1979-07-17 03:52:34.320 ,6,0,0.,24.0,0.,24.0,0.,24.0,0.,24.0
1979-07-17 03:52:58.320 ,7,1,8.,24.0,0.,24.0,0.,24.0,0.,24.0
1979-07-17 03:53:22.320 ,7,0,23.,24.0,0.,24.0,0.,24.0,0.,24.0
1979-07-17 03:53:46.320 ,7,1,29.,24.0,0.,24.0,0.,24.0,0.,24.0
1979-07-17 03:54:10.320 ,7,0,30.,24.0,1.,24.0,0.,24.0,0.,24.0
1979-07-17 03:54:34.320 ,6,1,29.,24.0,0.,24.0,0.,24.0,0.,24.0
1979-07-17 03:54:58.320 ,6,0,0.,24.0,0.,24.0,0.,24.0,0.,24.0
1979-07-17 03:55:22.320 ,5,1,1.,24.0,0.,24.0,0.,24.0,0.,24.0
1979-07-17 03:55:46.320 ,5,0,1.,24.0,1.,24.0,0.,24.0,0.,24.0
1979-07-17 03:56:10.320 ,4,1,0.,24.0,0.,24.0,0.,24.0,0.,24.0
1979-07-17 03:56:34.320 ,4,0,0.,24.0,0.,24.0,0.,24.0,0.,24.0
1979-07-17 03:56:58.320 ,3,1,0.,24.0,0.,24.0,1.,24.0,0.,24.0
1979-07-17 03:57:22.320 ,3,0,0.,24.0,0.,24.0,0.,24.0,0.,24.0
1979-07-17 03:57:46.320 ,2,1,0.,24.0,0.,24.0,1.,24.0,0.,24.0
1979-07-17 03:58:10.320 ,2,0,0.,24.0,0.,24.0,0.,24.0,0.,24.0
1979-07-17 03:58:34.320 ,1,1,0.,24.0,0.,24.0,0.,24.0,0.,24.0
1979-07-17 03:58:58.320 ,1,0,0.,24.0,0.,24.0,0.,24.0,0.,24.0
1979-07-17 03:59:22.320 ,0,1,1.,24.0,0.,24.0,0.,24.0,0.,24.0
1979-07-17 03:59:46.320 ,0,0,0.,24.0,0.,24.0,0.,24.0,0.,24.0
1979-07-17 04:00:10.320 ,0,1,0.,24.0,0.,24.0,0.,24.0,0.,24.0
1979-07-17 04:00:34.320 ,0,0,0.,24.0,0.,24.0,0.,24.0,0.,24.0
1979-07-17 04:00:58.320 ,1,1,0.,24.0,0.,24.0,0.,24.0,0.,24.0
1979-07-17 04:01:22.320 ,1,0,1.,24.0,0.,24.0,0.,24.0,0.,24.0
1979-07-17 04:01:46.320 ,2,1,1.,24.0,0.,24.0,0.,24.0,0.,24.0
1979-07-17 04:02:10.320 ,2,0,1.,24.0,0.,24.0,0.,24.0,0.,24.0
1979-07-17 04:02:34.320 ,3,1,0.,24.0,0.,24.0,1.,24.0,0.,24.0
1979-07-17 04:02:58.320 ,3,0,0.,24.0,1.,24.0,1.,24.0,0.,24.0
1979-07-17 04:03:22.320 ,4,1,1.,24.0,0.,24.0,1.,24.0,0.,24.0
1979-07-17 04:03:46.320 ,4,0,0.,24.0,0.,24.0,0.,24.0,0.,24.0
1979-07-17 04:04:10.320 ,5,1,0.,24.0,0.,24.0,1.,24.0,0.,24.0
1979-07-17 04:04:34.320 ,5,0,0.,24.0,0.,24.0,1.,24.0,0.,24.0
1979-07-17 04:04:58.320 ,6,1,0.,24.0,0.,24.0,0.,24.0,0.,24.0
1979-07-17 04:05:22.320 ,6,0,1.,24.0,0.,24.0,0.,24.0,0.,24.0
1979-07-17 04:05:46.320 ,7,1,13.,24.0,0.,24.0,0.,24.0,0.,24.0
1979-07-17 04:06:10.320 ,7,0,33.,24.0,0.,24.0,2.,24.0,0.,24.0
1979-07-17 04:06:34.320 ,7,1,30.,24.0,0.,24.0,0.,24.0,0.,24.0
1979-07-17 04:06:58.320 ,7,0,35.,24.0,0.,24.0,0.,24.0,0.,24.0
1979-07-17 04:07:22.320 ,6,1,20.,24.0,0.,24.0,0.,24.0,0.,24.0
1979-07-17 04:07:46.320 ,6,0,0.,24.0,1.,24.0,0.,24.0,0.,24.0
1979-07-17 04:08:10.320 ,5,1,0.,24.0,0.,24.0,0.,24.0,0.,24.0
1979-07-17 04:08:34.320 ,5,0,0.,24.0,1.,24.0,0.,24.0,0.,24.0
1979-07-17 04:08:58.320 ,4,1,0.,24.0,0.,24.0,0.,24.0,0.,24.0
1979-07-17 04:09:22.320 ,4,0,1.,24.0,0.,24.0,0.,24.0,0.,24.0
1979-07-17 04:09:46.320 ,3,1,0.,24.0,0.,24.0,0.,24.0,0.,24.0
1979-07-17 04:10:10.320 ,3,0,0.,24.0,0.,24.0,0.,24.0,0.,24.0
1979-07-17 04:10:34.320 ,2,1,0.,24.0,0.,24.0,0.,24.0,0.,24.0
1979-07-17 04:10:58.320 ,2,0,1.,24.0,0.,24.0,0.,24.0,0.,24.0
1979-07-17 04:11:22.320 ,1,1,0.,24.0,0.,24.0,0.,24.0,0.,24.0
1979-07-17 04:11:46.320 ,1,0,0.,24.0,0.,24.0,1.,24.0,0.,24.0
1979-07-17 04:12:10.320 ,0,1,0.,24.0,0.,24.0,0.,24.0,0.,24.0
1979-07-17 04:12:34.320 ,0,0,0.,24.0,0.,24.0,0.,24.0,0.,24.0
1979-07-17 04:12:58.320 ,0,1,0.,24.0,0.,24.0,0.,24.0,0.,24.0
1979-07-17 04:13:22.320 ,0,0,0.,24.0,0.,24.0,0.,24.0,0.,24.0
1979-07-17 04:13:46.320 ,1,1,0.,24.0,0.,24.0,0.,24.0,0.,24.0
1979-07-17 04:14:10.320 ,1,0,0.,24.0,0.,24.0,0.,24.0,0.,24.0
1979-07-17 04:14:34.320 ,2,1,0.,24.0,0.,24.0,0.,24.0,0.,24.0
1979-07-17 04:14:58.320 ,2,0,0.,24.0,1.,24.0,0.,24.0,0.,24.0
1979-07-17 04:15:22.320 ,3,1,0.,24.0,0.,24.0,0.,24.0,0.,24.0
1979-07-17 04:15:46.320 ,3,0,0.,24.0,0.,24.0,0.,24.0,0.,24.0
1979-07-17 04:16:10.320 ,4,1,0.,24.0,1.,24.0,0.,24.0,0.,24.0
1979-07-17 04:16:34.320 ,4,0,0.,24.0,0.,24.0,0.,24.0,0.,24.0
1979-07-17 04:16:58.320 ,5,1,1.,24.0,1.,24.0,0.,24.0,0.,24.0
1979-07-17 04:17:22.320 ,5,0,0.,24.0,0.,24.0,0.,24.0,0.,24.0
1979-07-17 04:17:46.320 ,6,1,0.,24.0,0.,24.0,0.,24.0,0.,24.0
1979-07-17 04:18:10.320 ,6,0,0.,24.0,0.,24.0,1.,24.0,0.,24.0
1979-07-17 04:18:34.320 ,7,0,6.,24.0,0.,24.0,1.,24.0,0.,24.0
1979-07-17 04:18:58.320 ,7,0,47.,24.0,0.,24.0,0.,24.0,0.,24.0
1979-07-17 04:19:22.320 ,5,1,14.,24.0,0.,24.0,0.,24.0,0.,24.0
1979-07-17 04:19:46.320 ,1,1,0.,24.0,0.,24.0,0.,24.0,0.,24.0
1979-07-17 04:20:10.320 ,2,1,0.,24.0,0.,24.0,0.,24.0,0.,24.0
1979-07-17 04:20:34.320 ,6,1,0.,24.0,1.,24.0,0.,24.0,0.,24.0
1979-07-17 04:20:58.320 ,5,1,16.,24.0,0.,24.0,0.,24.0,0.,24.0
1979-07-17 04:21:22.320 ,1,1,0.,24.0,0.,24.0,0.,24.0,0.,24.0
1979-07-17 04:21:46.320 ,2,1,1.,24.0,0.,24.0,0.,24.0,0.,24.0
1979-07-17 04:22:10.320 ,6,1,0.,24.0,0.,24.0,0.,24.0,0.,24.0
1979-07-17 04:22:34.320 ,5,1,8.,24.0,0.,24.0,0.,24.0,0.,24.0
1979-07-17 04:22:58.320 ,1,1,0.,24.0,0.,24.0,0.,24.0,0.,24.0
1979-07-17 04:23:22.320 ,2,1,0.,24.0,0.,24.0,0.,24.0,0.,24.0
1979-07-17 04:23:46.320 ,6,1,1.,24.0,0.,24.0,0.,24.0,0.,24.0
1979-07-17 04:24:10.320 ,5,1,14.,24.0,0.,24.0,0.,24.0,0.,24.0
1979-07-17 04:24:34.320 ,1,1,0.,24.0,0.,24.0,0.,24.0,0.,24.0
1979-07-17 04:24:58.320 ,2,1,0.,24.0,0.,24.0,0.,24.0,0.,24.0
1979-07-17 04:25:22.320 ,6,1,0.,24.0,0.,24.0,1.,24.0,0.,24.0
1979-07-17 04:25:46.320 ,5,1,7.,24.0,0.,24.0,0.,24.0,0.,24.0
1979-07-17 04:26:10.320 ,1,1,0.,24.0,0.,24.0,0.,24.0,0.,24.0
1979-07-17 04:26:34.320 ,2,1,0.,24.0,0.,24.0,0.,24.0,0.,24.0
1979-07-17 04:26:58.320 ,6,1,0.,24.0,0.,24.0,0.,24.0,0.,24.0
1979-07-17 04:27:22.320 ,5,1,19.,24.0,0.,24.0,0.,24.0,0.,24.0
1979-07-17 04:27:46.320 ,1,1,1.,24.0,0.,24.0,0.,24.0,0.,24.0
1979-07-17 04:28:10.320 ,2,1,0.,24.0,0.,24.0,0.,24.0,0.,24.0
1979-07-17 04:28:34.320 ,6,1,0.,24.0,0.,24.0,0.,24.0,0.,24.0
1979-07-17 04:28:58.320 ,5,1,19.,24.0,0.,24.0,0.,24.0,0.,24.0
1979-07-17 04:29:22.320 ,1,1,1.,24.0,0.,24.0,0.,24.0,0.,24.0
1979-07-17 04:29:46.320 ,0,0,0.,24.0,0.,24.0,0.,24.0,0.,24.0
1979-07-17 04:30:10.320 ,0,0,0.,24.0,1.,24.0,0.,24.0,0.,24.0
1979-07-17 04:30:34.320 ,5,1,15.,24.0,0.,24.0,0.,24.0,0.,24.0
1979-07-17 04:30:58.320 ,5,0,0.,24.0,0.,24.0,0.,24.0,0.,24.0
1979-07-17 04:31:22.320 ,4,1,0.,24.0,1.,24.0,0.,24.0,0.,24.0
1979-07-17 04:31:46.320 ,4,0,0.,24.0,0.,24.0,0.,24.0,0.,24.0
1979-07-17 04:32:10.320 ,3,1,0.,24.0,0.,24.0,0.,24.0,0.,24.0
1979-07-17 04:32:34.320 ,3,0,1.,24.0,0.,24.0,0.,24.0,0.,24.0
1979-07-17 04:32:58.320 ,2,1,0.,24.0,0.,24.0,0.,24.0,0.,24.0
1979-07-17 04:33:22.320 ,2,0,0.,24.0,0.,24.0,0.,24.0,0.,24.0
1979-07-17 04:33:46.320 ,1,1,0.,24.0,0.,24.0,0.,24.0,0.,24.0
1979-07-17 04:34:10.320 ,1,0,1.,24.0,0.,24.0,0.,24.0,0.,24.0
1979-07-17 04:34:34.320 ,0,1,0.,24.0,0.,24.0,0.,24.0,0.,24.0
1979-07-17 04:34:58.320 ,0,0,0.,24.0,0.,24.0,0.,24.0,0.,24.0
1979-07-17 04:35:22.320 ,0,1,0.,24.0,0.,24.0,0.,24.0,0.,24.0
1979-07-17 04:35:46.320 ,0,0,0.,24.0,0.,24.0,0.,24.0,0.,24.0
1979-07-17 04:36:10.320 ,1,1,0.,24.0,0.,24.0,0.,24.0,0.,24.0
1979-07-17 04:36:34.320 ,1,0,0.,24.0,0.,24.0,0.,24.0,0.,24.0
1979-07-17 04:36:58.320 ,2,1,0.,24.0,0.,24.0,0.,24.0,0.,24.0
1979-07-17 04:37:22.320 ,2,0,0.,24.0,1.,24.0,0.,24.0,0.,24.0
1979-07-17 04:37:46.320 ,3,1,1.,24.0,0.,24.0,0.,24.0,0.,24.0
1979-07-17 04:38:10.320 ,3,0,0.,24.0,0.,24.0,0.,24.0,0.,24.0
1979-07-17 04:38:34.320 ,4,1,1.,24.0,1.,24.0,0.,24.0,0.,24.0
1979-07-17 04:38:58.320 ,4,0,0.,24.0,0.,24.0,0.,24.0,0.,24.0
1979-07-17 04:39:22.320 ,5,1,0.,24.0,0.,24.0,0.,24.0,0.,24.0
1979-07-17 04:39:46.320 ,5,0,0.,24.0,0.,24.0,0.,24.0,0.,24.0
1979-07-17 04:40:10.320 ,6,1,1.,24.0,1.,24.0,0.,24.0,0.,24.0
1979-07-17 04:40:34.320 ,6,0,1.,24.0,0.,24.0,0.,24.0,0.,24.0
1979-07-17 04:40:58.320 ,7,1,8.,24.0,0.,24.0,0.,24.0,0.,24.0
1979-07-17 04:41:22.320 ,7,0,30.,24.0,1.,24.0,0.,24.0,0.,24.0
1979-07-17 04:41:46.320 ,7,1,30.,24.0,0.,24.0,0.,24.0,0.,24.0
1979-07-17 04:42:10.320 ,7,0,27.,24.0,0.,24.0,0.,24.0,0.,24.0
1979-07-17 04:42:34.320 ,6,1,22.,24.0,0.,24.0,0.,24.0,0.,24.0
1979-07-17 04:42:58.320 ,6,0,0.,24.0,0.,24.0,0.,24.0,0.,24.0
1979-07-17 04:43:22.320 ,5,1,0.,24.0,0.,24.0,0.,24.0,0.,24.0
1979-07-17 04:43:46.320 ,5,0,0.,24.0,0.,24.0,0.,24.0,0.,24.0
1979-07-17 04:44:10.320 ,4,1,0.,24.0,0.,24.0,0.,24.0,0.,24.0
1979-07-17 04:44:34.320 ,4,0,0.,24.0,0.,24.0,0.,24.0,0.,24.0
1979-07-17 04:44:58.320 ,3,1,0.,24.0,0.,24.0,0.,24.0,0.,24.0
1979-07-17 04:45:22.320 ,3,0,0.,24.0,0.,24.0,0.,24.0,0.,24.0
1979-07-17 04:45:46.320 ,2,1,0.,24.0,1.,24.0,0.,24.0,0.,24.0
1979-07-17 04:46:10.320 ,2,0,0.,24.0,0.,24.0,1.,24.0,0.,24.0
1979-07-17 04:46:34.320 ,1,1,2.,24.0,1.,24.0,0.,24.0,0.,24.0
1979-07-17 04:46:58.320 ,1,0,0.,24.0,0.,24.0,1.,24.0,0.,24.0
1979-07-17 04:47:22.320 ,0,1,0.,24.0,1.,24.0,0.,24.0,0.,24.0
1979-07-17 04:47:46.320 ,0,0,1.,24.0,0.,24.0,0.,24.0,0.,24.0
1979-07-17 04:48:10.320 ,0,1,0.,24.0,0.,24.0,0.,24.0,0.,24.0
1979-07-17 04:48:34.320 ,0,0,0.,24.0,0.,24.0,0.,24.0,0.,24.0
1979-07-17 04:48:58.320 ,1,1,0.,24.0,0.,24.0,0.,24.0,0.,24.0
1979-07-17 04:49:22.320 ,1,0,0.,24.0,1.,24.0,0.,24.0,0.,24.0
1979-07-17 04:49:46.320 ,2,1,0.,24.0,0.,24.0,0.,24.0,0.,24.0
1979-07-17 04:50:10.320 ,2,0,0.,24.0,0.,24.0,0.,24.0,0.,24.0
1979-07-17 04:50:34.320 ,3,1,0.,24.0,0.,24.0,1.,24.0,0.,24.0
1979-07-17 04:50:58.320 ,3,0,0.,24.0,0.,24.0,0.,24.0,0.,24.0
1979-07-17 04:51:22.320 ,4,1,1.,24.0,0.,24.0,0.,24.0,0.,24.0
1979-07-17 04:51:46.320 ,4,0,0.,24.0,0.,24.0,0.,24.0,0.,24.0
1979-07-17 04:52:10.320 ,5,1,0.,24.0,0.,24.0,0.,24.0,0.,24.0
1979-07-17 04:52:34.320 ,5,0,0.,24.0,0.,24.0,0.,24.0,0.,24.0
1979-07-17 04:52:58.320 ,6,1,0.,24.0,0.,24.0,0.,24.0,0.,24.0
1979-07-17 04:53:22.320 ,6,0,0.,24.0,0.,24.0,0.,24.0,0.,24.0
1979-07-17 04:53:46.320 ,7,1,5.,24.0,1.,24.0,1.,24.0,0.,24.0
1979-07-17 04:54:10.320 ,7,0,29.,24.0,0.,24.0,0.,24.0,0.,24.0
1979-07-17 04:54:34.320 ,7,1,28.,24.0,0.,24.0,0.,24.0,0.,24.0
1979-07-17 04:54:58.320 ,7,0,30.,24.0,0.,24.0,0.,24.0,0.,24.0
1979-07-17 04:55:22.320 ,6,1,20.,24.0,0.,24.0,0.,24.0,0.,24.0
1979-07-17 04:55:46.320 ,6,0,0.,24.0,0.,24.0,0.,24.0,0.,24.0
1979-07-17 04:56:10.320 ,5,1,0.,24.0,0.,24.0,0.,24.0,0.,24.0
1979-07-17 04:56:34.320 ,5,0,1.,24.0,0.,24.0,0.,24.0,0.,24.0
1979-07-17 04:56:58.320 ,4,1,0.,24.0,1.,24.0,0.,24.0,0.,24.0
1979-07-17 04:57:22.320 ,4,0,0.,24.0,1.,24.0,0.,24.0,0.,24.0
1979-07-17 04:57:46.320 ,3,1,0.,24.0,0.,24.0,1.,24.0,0.,24.0
1979-07-17 04:58:10.320 ,3,0,0.,24.0,0.,24.0,0.,24.0,0.,24.0
1979-07-17 04:58:34.320 ,2,1,0.,24.0,0.,24.0,0.,24.0,0.,24.0
1979-07-17 04:58:58.320 ,2,0,0.,24.0,0.,24.0,0.,24.0,0.,24.0
1979-07-17 04:59:22.320 ,1,1,0.,24.0,1.,24.0,1.,24.0,0.,24.0
1979-07-17 04:59:46.320 ,1,0,0.,24.0,0.,24.0,0.,24.0,0.,24.0
1979-07-17 05:00:10.320 ,0,1,1.,24.0,0.,24.0,1.,24.0,0.,24.0
1979-07-17 05:00:34.320 ,0,0,0.,24.0,0.,24.0,0.,24.0,0.,24.0
1979-07-17 05:00:58.320 ,0,1,0.,24.0,0.,24.0,0.,24.0,0.,24.0
1979-07-17 05:01:22.320 ,0,0,0.,24.0,0.,24.0,0.,24.0,0.,24.0
1979-07-17 05:01:46.320 ,1,1,0.,24.0,0.,24.0,0.,24.0,0.,24.0
1979-07-17 05:02:10.320 ,1,0,1.,24.0,0.,24.0,0.,24.0,0.,24.0
1979-07-17 05:02:34.320 ,2,1,0.,24.0,1.,24.0,0.,24.0,0.,24.0
1979-07-17 05:02:58.320 ,2,0,0.,24.0,0.,24.0,0.,24.0,0.,24.0
1979-07-17 05:03:22.320 ,3,1,0.,24.0,0.,24.0,0.,24.0,0.,24.0
1979-07-17 05:03:46.320 ,3,0,0.,24.0,0.,24.0,0.,24.0,0.,24.0
1979-07-17 05:04:10.320 ,4,1,2.,24.0,0.,24.0,0.,24.0,0.,24.0
1979-07-17 05:04:34.320 ,4,0,0.,24.0,1.,24.0,0.,24.0,0.,24.0
1979-07-17 05:04:58.320 ,5,1,1.,24.0,0.,24.0,0.,24.0,0.,24.0
1979-07-17 05:05:22.320 ,5,0,0.,24.0,1.,24.0,1.,24.0,0.,24.0
1979-07-17 05:05:46.320 ,6,1,0.,24.0,0.,24.0,0.,24.0,0.,24.0
1979-07-17 05:06:10.320 ,6,0,1.,24.0,0.,24.0,0.,24.0,0.,24.0
1979-07-17 05:06:34.320 ,7,0,6.,24.0,0.,24.0,0.,24.0,0.,24.0
1979-07-17 05:06:58.320 ,7,0,37.,24.0,0.,24.0,0.,24.0,0.,24.0
1979-07-17 05:07:22.320 ,5,1,15.,24.0,0.,24.0,0.,24.0,0.,24.0
1979-07-17 05:07:46.320 ,1,1,1.,24.0,0.,24.0,0.,24.0,0.,24.0
1979-07-17 05:08:10.320 ,2,1,0.,24.0,0.,24.0,1.,24.0,0.,24.0
1979-07-17 05:08:34.320 ,6,1,0.,24.0,0.,24.0,0.,24.0,0.,24.0
1979-07-17 05:08:58.320 ,5,1,9.,24.0,0.,24.0,0.,24.0,0.,24.0
1979-07-17 05:09:22.320 ,1,1,0.,24.0,0.,24.0,0.,24.0,0.,24.0
1979-07-17 05:09:46.320 ,2,1,0.,24.0,0.,24.0,0.,24.0,0.,24.0
1979-07-17 05:10:10.320 ,6,1,0.,24.0,0.,24.0,0.,24.0,0.,24.0
1979-07-17 05:10:34.320 ,5,1,15.,24.0,0.,24.0,0.,24.0,0.,24.0
1979-07-17 05:10:58.320 ,1,1,0.,24.0,0.,24.0,0.,24.0,0.,24.0
1979-07-17 05:11:22.320 ,2,1,0.,24.0,0.,24.0,0.,24.0,0.,24.0
1979-07-17 05:11:46.320 ,6,1,0.,24.0,1.,24.0,0.,24.0,0.,24.0
1979-07-17 05:12:10.320 ,5,1,17.,24.0,0.,24.0,0.,24.0,0.,24.0
1979-07-17 05:12:34.320 ,1,1,0.,24.0,0.,24.0,0.,24.0,0.,24.0
1979-07-17 05:12:58.320 ,2,1,0.,24.0,1.,24.0,0.,24.0,0.,24.0
1979-07-17 05:13:22.320 ,6,1,0.,24.0,0.,24.0,0.,24.0,0.,24.0
1979-07-17 05:13:46.320 ,5,1,16.,24.0,0.,24.0,0.,24.0,0.,24.0
1979-07-17 05:14:10.320 ,1,1,0.,24.0,0.,24.0,0.,24.0,0.,24.0
1979-07-17 05:14:34.320 ,2,1,0.,24.0,0.,24.0,0.,24.0,0.,24.0
1979-07-17 05:14:58.320 ,6,1,1.,24.0,0.,24.0,0.,24.0,0.,24.0
1979-07-17 05:15:22.320 ,5,1,14.,24.0,1.,24.0,0.,24.0,0.,24.0
1979-07-17 05:15:46.320 ,1,1,0.,24.0,0.,24.0,0.,24.0,0.,24.0
1979-07-17 05:16:10.320 ,2,1,0.,24.0,0.,24.0,0.,24.0,0.,24.0
1979-07-17 05:16:34.320 ,6,1,1.,24.0,0.,24.0,0.,24.0,0.,24.0
1979-07-17 05:16:58.320 ,5,1,8.,24.0,0.,24.0,0.,24.0,0.,24.0
1979-07-17 05:17:22.320 ,1,1,0.,24.0,0.,24.0,0.,24.0,0.,24.0
1979-07-17 05:17:46.320 ,0,0,0.,24.0,0.,24.0,0.,24.0,0.,24.0
1979-07-17 05:18:10.320 ,0,0,1.,24.0,0.,24.0,0.,24.0,0.,24.0
1979-07-17 05:18:34.320 ,5,1,13.,24.0,0.,24.0,0.,24.0,0.,24.0
1979-07-17 05:18:58.320 ,5,0,0.,24.0,0.,24.0,0.,24.0,0.,24.0
1979-07-17 05:19:22.320 ,4,1,0.,24.0,0.,24.0,0.,24.0,0.,24.0
1979-07-17 05:19:46.320 ,4,0,0.,24.0,0.,24.0,0.,24.0,0.,24.0
1979-07-17 05:20:10.320 ,3,1,2.,24.0,0.,24.0,0.,24.0,0.,24.0
1979-07-17 05:20:34.320 ,3,0,0.,24.0,0.,24.0,0.,24.0,0.,24.0
1979-07-17 05:20:58.320 ,2,1,0.,24.0,0.,24.0,0.,24.0,0.,24.0
1979-07-17 05:21:22.320 ,2,0,0.,24.0,1.,24.0,1.,24.0,0.,24.0
1979-07-17 05:21:46.320 ,1,1,0.,24.0,0.,24.0,0.,24.0,0.,24.0
1979-07-17 05:22:10.320 ,1,0,0.,24.0,0.,24.0,0.,24.0,0.,24.0
1979-07-17 05:22:34.320 ,0,1,0.,24.0,0.,24.0,0.,24.0,0.,24.0
1979-07-17 05:22:58.320 ,0,0,0.,24.0,0.,24.0,0.,24.0,0.,24.0
1979-07-17 05:23:22.320 ,0,1,1.,24.0,0.,24.0,0.,24.0,0.,24.0
1979-07-17 05:23:46.320 ,0,0,0.,24.0,0.,24.0,1.,24.0,0.,24.0
1979-07-17 05:24:10.320 ,1,1,0.,24.0,0.,24.0,0.,24.0,0.,24.0
1979-07-17 05:24:34.320 ,1,0,0.,24.0,0.,24.0,0.,24.0,0.,24.0
1979-07-17 05:24:58.320 ,2,1,0.,24.0,0.,24.0,0.,24.0,0.,24.0
1979-07-17 05:25:22.320 ,2,0,0.,24.0,0.,24.0,0.,24.0,0.,24.0
1979-07-17 05:25:46.320 ,3,1,0.,24.0,0.,24.0,0.,24.0,0.,24.0
1979-07-17 05:26:10.320 ,3,0,2.,24.0,0.,24.0,0.,24.0,0.,24.0
1979-07-17 05:26:34.320 ,4,1,0.,24.0,0.,24.0,0.,24.0,0.,24.0
1979-07-17 05:26:58.320 ,4,0,0.,24.0,0.,24.0,0.,24.0,0.,24.0
1979-07-17 05:27:22.320 ,5,1,2.,24.0,0.,24.0,0.,24.0,0.,24.0
1979-07-17 05:27:46.320 ,5,0,0.,24.0,0.,24.0,0.,24.0,0.,24.0
1979-07-17 05:28:10.320 ,6,1,0.,24.0,0.,24.0,0.,24.0,0.,24.0
1979-07-17 05:28:34.320 ,6,0,0.,24.0,0.,24.0,0.,24.0,0.,24.0
1979-07-17 05:28:58.320 ,7,1,5.,24.0,0.,24.0,1.,24.0,0.,24.0
1979-07-17 05:29:22.320 ,7,0,33.,24.0,0.,24.0,0.,24.0,0.,24.0
1979-07-17 05:29:46.320 ,7,1,31.,24.0,0.,24.0,0.,24.0,0.,24.0
1979-07-17 05:30:10.320 ,7,0,30.,24.0,0.,24.0,0.,24.0,0.,24.0
1979-07-17 05:30:34.320 ,6,1,29.,24.0,1.,24.0,0.,24.0,0.,24.0
1979-07-17 05:30:58.320 ,6,0,0.,24.0,1.,24.0,0.,24.0,0.,24.0
1979-07-17 05:31:22.320 ,5,1,1.,24.0,1.,24.0,0.,24.0,0.,24.0
1979-07-17 05:31:46.320 ,5,0,0.,24.0,0.,24.0,0.,24.0,0.,24.0
1979-07-17 05:32:10.320 ,4,1,0.,24.0,0.,24.0,0.,24.0,0.,24.0
1979-07-17 05:32:34.320 ,4,0,0.,24.0,0.,24.0,0.,24.0,0.,24.0
1979-07-17 05:32:58.320 ,3,1,2.,24.0,0.,24.0,0.,24.0,0.,24.0
1979-07-17 05:33:22.320 ,3,0,0.,24.0,0.,24.0,0.,24.0,0.,24.0
1979-07-17 05:33:46.320 ,2,1,1.,24.0,0.,24.0,0.,24.0,0.,24.0
1979-07-17 05:34:10.320 ,2,0,0.,24.0,1.,24.0,0.,24.0,0.,24.0